| time (UTC) | temp C | wind direction | speed KPH | gust KPH | rain 1hr cm | rain 24hr cm | rain mn cm | humidity % | barometer mb |
| 20260901100044 | 18 | 165 | 0.0 | 1.6 | 0.00 | 0.10 | 0.00 | 94 | 1015.0 |
| 20260901094543 | 18 | 165 | 0.0 | 1.6 | 0.00 | 0.10 | 0.00 | 94 | 1015.1 |
| 20260901093109 | 18 | 165 | 0.0 | 0.0 | 0.00 | 0.10 | 0.00 | 93 | 1015.1 |
| 20260901091558 | 18 | 165 | 0.0 | 0.0 | 0.00 | 0.10 | 0.00 | 93 | 1015.0 |
| 20260901090042 | 18 | 165 | 0.0 | 0.0 | 0.00 | 0.10 | 0.00 | 93 | 1015.0 |
| 20260901084540 | 18 | 165 | 0.0 | 0.0 | 0.00 | 0.10 | 0.00 | 94 | 1015.1 |
| 20260901083044 | 18 | 165 | 0.0 | 0.0 | 0.00 | 0.10 | 0.00 | 93 | 1015.2 |
| 20260901081537 | 18 | 165 | 0.0 | 1.6 | 0.00 | 0.10 | 0.00 | 93 | 1015.4 |
| 20260901080043 | 18 | 165 | 0.0 | 0.0 | 0.00 | 0.10 | 0.00 | 93 | 1015.2 |
| 20260901074536 | 18 | 165 | 0.0 | 0.0 | 0.00 | 0.10 | 0.00 | 93 | 1015.4 |
| 20260901073036 | 18 | 165 | 0.0 | 0.0 | 0.00 | 0.10 | 0.00 | 92 | 1015.6 |
| 20260901071535 | 18 | 165 | 0.0 | 0.0 | 0.00 | 0.10 | 0.00 | 92 | 1015.4 |
| 20260901070036 | 18 | 165 | 0.0 | 0.0 | 0.00 | 0.10 | 0.00 | 92 | 1015.5 |
| 20260901064537 | 19 | 165 | 0.0 | 0.0 | 0.00 | 0.10 | 0.00 | 92 | 1015.5 |
| 20260901063029 | 19 | 165 | 0.0 | 0.0 | 0.00 | 0.10 | 0.00 | 93 | 1015.8 |
| 20260901061528 | 19 | 165 | 0.0 | 0.0 | 0.00 | 0.10 | 0.00 | 93 | 1015.8 |
| 20260901060026 | 19 | 165 | 0.0 | 0.0 | 0.00 | 0.10 | 0.00 | 92 | 1016.0 |
| 20260901054525 | 19 | 165 | 0.0 | 0.0 | 0.00 | 0.10 | 0.00 | 92 | 1015.9 |
| 20260901053025 | 19 | 165 | 0.0 | 0.0 | 0.00 | 0.10 | 0.00 | 92 | 1016.1 |
| 20260901051522 | 19 | 165 | 0.0 | 1.6 | 0.00 | 0.10 | 0.00 | 92 | 1016.3 |
| 20260901050021 | 20 | 165 | 0.0 | 1.6 | 0.00 | 0.10 | 0.00 | 92 | 1016.5 |
| 20260901044520 | 20 | 153 | 0.0 | 3.2 | 0.00 | 0.10 | 0.00 | 92 | 1016.4 |
| 20260901043020 | 20 | 151 | 0.0 | 0.0 | 0.00 | 0.10 | 0.00 | 92 | 1016.4 |
| 20260901041518 | 20 | 151 | 0.0 | 3.2 | 0.00 | 0.10 | 0.00 | 92 | 1016.4 |
| 20260901040020 | 20 | 151 | 0.0 | 3.2 | 0.00 | 0.10 | 0.00 | 92 | 1016.3 |
| 20260901034516 | 19 | 351 | 0.0 | 3.2 | 0.00 | 0.10 | 0.10 | 92 | 1016.3 |
| 20260901033033 | 19 | 171 | 0.0 | 4.8 | 0.00 | 0.10 | 0.10 | 92 | 1016.3 |
| 20260901031514 | 19 | 196 | 0.0 | 3.2 | 0.00 | 0.10 | 0.10 | 92 | 1016.6 |
| 20260901030015 | 19 | 167 | 0.0 | 0.0 | 0.00 | 0.10 | 0.10 | 92 | 1016.6 |
| 20260901024511 | 19 | 160 | 0.0 | 0.0 | 0.00 | 0.10 | 0.10 | 93 | 1016.8 |
| 20260901023011 | 19 | 160 | 0.0 | 0.0 | 0.00 | 0.10 | 0.10 | 92 | 1017.0 |
| 20260901021517 | 19 | 160 | 0.0 | 0.0 | 0.00 | 0.10 | 0.10 | 92 | 1017.1 |
| 20260901020011 | 19 | 160 | 0.0 | 0.0 | 0.00 | 0.10 | 0.10 | 92 | 1017.2 |
| 20260901014510 | 19 | 160 | 0.0 | 0.0 | 0.00 | 0.10 | 0.10 | 92 | 1017.1 |
| 20260901013009 | 19 | 160 | 0.0 | 0.0 | 0.00 | 0.10 | 0.10 | 92 | 1017.2 |
| 20260901011509 | 19 | 160 | 0.0 | 0.0 | 0.00 | 0.10 | 0.10 | 92 | 1017.0 |
| 20260901010009 | 19 | 159 | 0.0 | 0.0 | 0.00 | 0.10 | 0.10 | 92 | 1016.8 |
| 20260901004508 | 19 | 159 | 0.0 | 0.0 | 0.00 | 0.10 | 0.10 | 91 | 1016.9 |
| 20260901003011 | 19 | 160 | 0.0 | 0.0 | 0.00 | 0.10 | 0.10 | 91 | 1016.8 |
| 20260901001514 | 19 | 160 | 0.0 | 0.0 | 0.00 | 0.10 | 0.10 | 91 | 1016.6 |
| 20260901000006 | 20 | 160 | 0.0 | 0.0 | 0.00 | 0.10 | 0.10 | 90 | 1016.8 |
| 20260831234515 | 20 | 160 | 0.0 | 0.0 | 0.00 | 0.13 | 0.10 | 90 | 1017.0 |
| 20260831233004 | 20 | 159 | 0.0 | 0.0 | 0.00 | 0.13 | 0.10 | 90 | 1016.9 |
| 20260831231503 | 20 | 160 | 0.0 | 0.0 | 0.00 | 0.13 | 0.10 | 90 | 1016.9 |
| 20260831230002 | 20 | 160 | 0.0 | 1.6 | 0.00 | 0.13 | 0.10 | 90 | 1017.1 |
| 20260831224600 | 20 | 160 | 0.0 | 1.6 | 0.00 | 0.13 | 0.10 | 90 | 1017.2 |
| 20260831223058 | 20 | 159 | 0.0 | 3.2 | 0.00 | 0.13 | 0.10 | 89 | 1017.3 |
| 20260831221604 | 20 | 160 | 0.0 | 4.8 | 0.00 | 0.13 | 0.10 | 89 | 1017.4 |
| 20260831220124 | 20 | 159 | 0.0 | 4.8 | 0.00 | 0.13 | 0.10 | 89 | 1017.3 |
| 20260831214557 | 20 | 182 | 1.6 | 4.8 | 0.00 | 0.13 | 0.10 | 90 | 1017.3 |
| 20260831213059 | 20 | 166 | 0.0 | 3.2 | 0.00 | 0.13 | 0.10 | 90 | 1017.3 |
| 20260831211554 | 20 | 166 | 1.6 | 4.8 | 0.00 | 0.13 | 0.10 | 90 | 1017.5 |
| 20260831210054 | 20 | 165 | 0.0 | 4.8 | 0.00 | 0.13 | 0.10 | 90 | 1017.5 |
| 20260831204558 | 20 | 198 | 0.0 | 0.0 | 0.00 | 0.13 | 0.10 | 90 | 1017.6 |
| 20260831203111 | 20 | 198 | 0.0 | 3.2 | 0.00 | 0.13 | 0.10 | 90 | 1017.6 |
| 20260831201551 | 20 | 198 | 0.0 | 3.2 | 0.03 | 0.13 | 0.10 | 90 | 1017.7 |
| 20260831200054 | 20 | 198 | 0.0 | 0.0 | 0.03 | 0.13 | 0.10 | 91 | 1017.8 |
| 20260831194548 | 20 | 198 | 0.0 | 0.0 | 0.03 | 0.13 | 0.10 | 91 | 1018.0 |
| 20260831193050 | 20 | 198 | 0.0 | 1.6 | 0.05 | 0.13 | 0.10 | 90 | 1018.1 |
| 20260831191548 | 20 | 198 | 0.0 | 1.6 | 0.03 | 0.10 | 0.08 | 89 | 1018.3 |
| 20260831190057 | 20 | 198 | 0.0 | 1.6 | 0.05 | 0.10 | 0.08 | 90 | 1018.7 |
| 20260831184545 | 19 | 202 | 0.0 | 3.2 | 0.08 | 0.10 | 0.08 | 90 | 1018.7 |
| 20260831183045 | 19 | 204 | 0.0 | 0.0 | 0.05 | 0.08 | 0.05 | 89 | 1018.9 |
| 20260831181554 | 19 | 204 | 0.0 | 0.0 | 0.05 | 0.08 | 0.05 | 87 | 1019.1 |
| 20260831180044 | 20 | 204 | 0.0 | 3.2 | 0.03 | 0.05 | 0.03 | 86 | 1019.1 |
| 20260831174550 | 20 | 182 | 1.6 | 3.2 | 0.00 | 0.03 | 0.00 | 83 | 1019.2 |
| 20260831173043 | 20 | 182 | 0.0 | 4.8 | 0.00 | 0.03 | 0.00 | 81 | 1019.2 |
| 20260831171544 | 20 | 182 | 0.0 | 3.2 | 0.00 | 0.03 | 0.00 | 80 | 1019.1 |
| 20260831170042 | 20 | 182 | 0.0 | 3.2 | 0.00 | 0.03 | 0.00 | 79 | 1019.1 |
| 20260831164541 | 20 | 182 | 1.6 | 4.8 | 0.00 | 0.03 | 0.00 | 80 | 1019.2 |
| 20260831163043 | 20 | 182 | 0.0 | 1.6 | 0.00 | 0.03 | 0.00 | 79 | 1019.2 |
| 20260831161540 | 21 | 182 | 0.0 | 4.8 | 0.00 | 0.03 | 0.00 | 76 | 1019.1 |
| 20260831160100 | 21 | 173 | 1.6 | 4.8 | 0.00 | 0.03 | 0.00 | 76 | 1019.1 |
| 20260831154552 | 21 | 167 | 1.6 | 8.0 | 0.00 | 0.03 | 0.00 | 75 | 1019.2 |
| 20260831153124 | 21 | 171 | 3.2 | 8.0 | 0.00 | 0.03 | 0.00 | 77 | 1019.2 |
| 20260831151548 | 20 | 145 | 0.0 | 4.8 | 0.00 | 0.03 | 0.00 | 80 | 1019.2 |
| 20260831150046 | 20 | 144 | 0.0 | 3.2 | 0.00 | 0.03 | 0.00 | 80 | 1019.1 |
| 20260831144542 | 20 | 143 | 1.6 | 3.2 | 0.00 | 0.03 | 0.00 | 83 | 1019.2 |
| 20260831143040 | 19 | 49 | 0.0 | 3.2 | 0.00 | 0.03 | 0.00 | 86 | 1019.2 |
| 20260831141543 | 19 | 49 | 0.0 | 1.6 | 0.00 | 0.03 | 0.00 | 87 | 1019.4 |
| 20260831140037 | 18 | 49 | 0.0 | 1.6 | 0.00 | 0.03 | 0.00 | 86 | 1019.4 |
| 20260831134533 | 18 | 49 | 0.0 | 0.0 | 0.00 | 0.03 | 0.00 | 89 | 1019.2 |
| 20260831133033 | 18 | 49 | 0.0 | 0.0 | 0.00 | 0.03 | 0.00 | 90 | 1019.3 |
| 20260831131533 | 18 | 49 | 0.0 | 0.0 | 0.00 | 0.03 | 0.00 | 92 | 1019.3 |
| 20260831130040 | 17 | 49 | 0.0 | 0.0 | 0.00 | 0.03 | 0.00 | 92 | 1019.1 |
| 20260831124529 | 17 | 49 | 0.0 | 0.0 | 0.00 | 0.03 | 0.00 | 93 | 1019.2 |
| 20260831123041 | 17 | 49 | 0.0 | 0.0 | 0.00 | 0.03 | 0.00 | 94 | 1019.2 |
| 20260831121536 | 17 | 46 | 0.0 | 0.0 | 0.00 | 0.03 | 0.00 | 94 | 1019.3 |
| 20260831120053 | 17 | 46 | 0.0 | 0.0 | 0.00 | 0.03 | 0.00 | 94 | 1019.2 |
| 20260831114532 | 17 | 46 | 0.0 | 0.0 | 0.00 | 0.03 | 0.00 | 94 | 1019.3 |
| 20260831113026 | 17 | 44 | 0.0 | 0.0 | 0.00 | 0.03 | 0.00 | 94 | 1019.1 |
| 20260831111525 | 17 | 44 | 0.0 | 0.0 | 0.00 | 0.03 | 0.00 | 94 | 1019.1 |
| 20260831110023 | 17 | 44 | 0.0 | 0.0 | 0.00 | 0.03 | 0.00 | 93 | 1018.9 |
| 20260831104535 | 17 | 44 | 0.0 | 0.0 | 0.00 | 0.03 | 0.00 | 93 | 1018.8 |
| 20260831103021 | 17 | 44 | 0.0 | 0.0 | 0.00 | 0.03 | 0.00 | 93 | 1018.5 |
| 20260831101524 | 17 | 44 | 0.0 | 0.0 | 0.00 | 0.03 | 0.00 | 93 | 1018.5 |